[[{"header":{"parameterUnit":"m.s-1","parameterCategory":1,"la1":30.2991,"la2":30.254,"lo1":-89.0895,"lo2":-89.0444,"dy":0.0017,"dx":0.0017,"nx":28,"ny":28,"refTime":"2024-03-29T03:00:00:Z","depth":0,"parameterNumber":2,"parameterNumberName":"U-component_of_WINDS"},"data":[0,0,0,0,0,0,0,0,0,0,0,0,0,0,0,0,0,0,0,0,0,0,0,0,0,0,0,0,0,0,0,0,0,0,0,0,0,0,0,0,0,0,0,0,0,0,0,0,0,0,0,0,0,0,0,0,0,0,-1.0207,-1.0207,0,-1.0202,-1.0201,-1.0201,-1.0161,-1.016,-1.0159,-1.0158,-1.0152,-1.0153,-1.0154,0,0,0,0,0,0,0,0,0,0,0,0,0,-1.0183,-1.0184,-1.0207,-1.0207,-1.0207,-1.0202,-1.0201,-1.0201,-1.0161,-1.016,-1.0159,-1.0158,-1.0152,-1.0153,-1.0154,0,0,0,0,0,0,0,0,0,0,0,0,0,-1.0187,-1.0184,-1.0207,-1.0186,-1.0184,-1.0202,-1.0201,-1.0201,-1.0161,-1.016,-1.0158,-1.0157,-1.0152,-1.0153,-1.0154,-1.0191,0,0,-1.0158,-1.0158,0,0,0,0,0,0,0,0,-1.0187,-1.0188,-1.019,-1.0188,-1.0186,-1.018,-1.0191,-1.0198,-1.0162,-1.017,-1.0158,-1.0156,-1.0163,-1.0163,-1.0165,-1.0191,-1.0191,-1.0158,-1.0159,-1.0159,-1.0159,0,0,0,0,0,0,0,-1.0187,-1.0188,-1.0205,-1.019,-1.0187,-1.0177,-1.0176,-1.0192,-1.0175,-1.0169,-1.0166,-1.0166,-1.0162,-1.0164,-1.0165,-1.019,-1.0158,-1.0159,-1.016,-1.016,-1.0244,-1.0245,0,0,0,0,0,0,-1.019,-1.0188,-1.0205,-1.0205,-1.0183,-1.0179,-1.0178,-1.0184,-1.0175,-1.0172,-1.0167,-1.0164,-1.0163,-1.0164,-1.0165,-1.0205,-1.0159,-1.016,-1.0161,-1.0243,-1.0244,-1.0246,0,0,0,0,0,0,-1.0189,-1.0192,-1.0205,-1.0196,-1.0197,-1.0181,-1.0188,-1.0184,-1.0187,-1.0173,-1.017,-1.0173,-1.0162,-1.0163,-1.0184,-1.0205,-1.0161,-1.0162,-1.0241,-1.0243,-1.0245,-1.0288,0,0,0,0,0,0,-1.0189,-1.0192,-1.0206,-1.0196,-1.0197,-1.0225,-1.0189,-1.0185,-1.0189,-1.0185,-1.0178,-1.0175,-1.0161,-1.0183,-1.0185,-1.0205,-1.0163,-1.0239,-1.0242,-1.0244,-1.0285,-1.0292,-1.0298,0,0,0,0,0,-1.0188,-1.0218,-1.0206,-1.0209,-1.0214,-1.0227,-1.0227,-1.021,-1.0191,-1.0204,-1.0195,-1.0175,-1.0203,-1.0185,-1.0188,-1.0209,-1.0237,-1.0241,-1.0244,-1.0282,-1.029,-1.0298,0,0,0,0,0,0,-1.0231,-1.0217,-1.0203,-1.0232,-1.0231,-1.022,-1.0236,-1.022,-1.0224,-1.022,-1.0198,-1.0197,-1.0221,-1.0218,-1.0199,-1.0243,-1.0216,-1.0221,-1.0244,-1.0252,-1.0258,-1.0258,-1.0164,0,0,0,0,0,-1.0243,-1.0254,-1.0242,-1.0268,-1.0268,-1.0253,-1.0257,-1.0244,-1.0242,-1.0241,-1.0234,-1.0233,-1.0241,-1.0247,-1.0254,-1.0285,-1.0282,-1.03,-1.0307,-1.0312,-1.0315,-1.033,-1.0337,-1.0257,-1.0257,-1.0257,0,0,-1.027,-1.0263,-1.0272,-1.0276,-1.0274,-1.0285,-1.0252,-1.0266,-1.0274,-1.0243,-1.0262,-1.0257,-1.0255,-1.0281,-1.0292,-1.0278,-1.0337,-1.0317,-1.0321,-1.0321,-1.0334,-1.0342,-1.0348,-1.026,-1.0259,-1.0259,0,0,-1.0323,-1.032,-1.034,-1.0339,-1.0335,-1.0324,-1.033,-1.0321,-1.0316,-1.0335,-1.0312,-1.0322,-1.0336,-1.0335,-1.0336,-1.0388,-1.0369,-1.0391,-1.0424,-1.0438,-1.0444,-1.045,-1.0466,-1.0473,-1.0395,-1.0395,-1.0395,0,-1.0356,-1.0372,-1.0353,-1.0368,-1.037,-1.0343,-1.0363,-1.0362,-1.0361,-1.0363,-1.0348,-1.0365,-1.0362,-1.0386,-1.0399,-1.0402,-1.0406,-1.0391,-1.0445,-1.045,-1.0455,-1.0471,-1.0477,-1.0398,-1.0397,-1.0397,-1.0397,0,-1.0411,-1.0423,-1.044,-1.0439,-1.0443,-1.0461,-1.0445,-1.0452,-1.0438,-1.0429,-1.0448,-1.0443,-1.0447,-1.0453,-1.044,-1.0475,-1.0466,-1.0449,-1.0421,-1.0465,-1.048,-1.0486,-1.0401,-1.04,-1.04,-1.0399,0,0,-1.049,-1.0478,-1.0485,-1.0483,-1.0477,-1.0486,-1.0502,-1.0506,-1.0511,-1.0512,-1.0524,-1.0537,-1.052,-1.0522,-1.0509,-1.0522,-1.0561,-1.0502,-1.0502,-1.0511,-1.0597,-1.0609,-1.0616,-1.055,-1.0551,-1.0552,-1.0597,0,-1.0539,-1.0565,-1.0549,-1.0578,-1.0587,-1.0561,-1.0575,-1.0573,-1.0565,-1.0572,-1.0564,-1.0572,-1.0551,-1.0551,-1.0563,-1.0554,-1.0578,-1.0551,-1.0559,-1.056,-1.0559,-1.0624,-1.0637,-1.068,-1.0603,-1.0604,-1.0604,0,-1.06,-1.0602,-1.0631,-1.0622,-1.0626,-1.0638,-1.064,-1.0648,-1.0644,-1.0638,-1.0639,-1.0623,-1.0638,-1.0612,-1.0631,-1.0613,-1.0616,-1.0612,-1.0614,-1.0612,-1.0583,-1.0622,-1.0693,-1.0699,-1.0613,-1.0612,-1.0612,0,-1.0651,-1.0662,-1.068,-1.068,-1.0671,-1.068,-1.0677,-1.0672,-1.0675,-1.0677,-1.0679,-1.0683,-1.0684,-1.0688,-1.0672,-1.0656,-1.0693,-1.0667,-1.0687,-1.0687,-1.0694,-1.0694,-1.0764,-1.07,-1.07,-1.07,-1.07,0,-1.0706,-1.0725,-1.0703,-1.0714,-1.0734,-1.0715,-1.0735,-1.0729,-1.0725,-1.0734,-1.0714,-1.0723,-1.0703,-1.071,-1.0699,-1.0715,-1.0717,-1.0711,-1.0707,-1.0712,-1.0712,-1.0712,-1.0707,-1.0702,-1.0701,-1.0701,-1.0701,0,-1.0766,-1.0753,-1.0771,-1.076,-1.0758,-1.0773,-1.0764,-1.0773,-1.0764,-1.0776,-1.0778,-1.0764,-1.0771,-1.0756,-1.0762,-1.0754,-1.0777,-1.077,-1.0778,-1.0775,-1.0795,-1.0792,-1.0866,-1.0874,-1.0807,-1.0807,-1.0808,0,-1.0801,-1.0815,-1.0805,-1.081,-1.0807,-1.0815,-1.0818,-1.08,-1.0804,-1.0801,-1.0811,-1.0816,-1.0819,-1.0832,-1.0822,-1.0826,-1.0817,-1.0843,-1.0817,-1.0821,-1.0815,-1.0813,-1.0813,-1.0847,-1.0848,-1.0849,-1.0849,0,-1.0864,-1.0857,-1.0861,-1.0863,-1.0867,-1.0868,-1.0868,-1.0873,-1.0854,-1.0859,-1.0866,-1.0868,-1.0873,-1.0878,-1.088,-1.0876,-1.0859,-1.0857,-1.0862,-1.0865,-1.0868,-1.0865,-1.0789,-1.0855,-1.0855,-1.0854,-1.0854,-1.0854,-1.0911,-1.0921,-1.0916,-1.0921,-1.0919,-1.0919,-1.0927,-1.0919,-1.0924,-1.0926,-1.0916,-1.0924,-1.092,-1.092,-1.0918,-1.0925,-1.0913,-1.092,-1.0921,-1.0923,-1.0925,-1.0869,-1.0925,-1.0925,-1.0925,-1.0925,-1.0925,0,-1.0971,-1.0966,-1.0971,-1.0971,-1.0975,-1.0959,-1.0958,-1.0962,-1.097,-1.0968,-1.0971,-1.0978,-1.0983,-1.0973,-1.0976,-1.0983,-1.0975,-1.0984,-1.0982,-1.0981,-1.0936,-1.0931,-1.099,-1.099,-1.099,-1.099,-1.099,-1.099,-1.1002,-1.1018,-1.1009,-1.1023,-1.1019,-1.1026,-1.1027,-1.1026,-1.1024,-1.1032,-1.1036,-1.103,-1.1024,-1.1027,-1.103,-1.1027,-1.1028,-1.1039,-1.1034,-1.0991,-1.0985,-1.0979,-1.0973,-1.104,-1.104,-1.1078,-1.1078,-1.1078]},{"header":{"parameterUnit":"m.s-1","parameterCategory":1,"la1":30.2991,"la2":30.254,"lo1":-89.0895,"lo2":-89.0444,"dy":0.0017,"dx":0.0017,"nx":28,"ny":28,"refTime":"2024-03-29T03:00:00:Z","depth":0,"parameterNumber":3,"parameterNumberName":"V-component_of_WINDS"},"data":[0,0,0,0,0,0,0,0,0,0,0,0,0,0,0,0,0,0,0,0,0,0,0,0,0,0,0,0,0,0,0,0,0,0,0,0,0,0,0,0,0,0,0,0,0,0,0,0,0,0,0,0,0,0,0,0,0,0,2.6352,2.6353,0,2.6487,2.6489,2.649,2.6578,2.6579,2.6579,2.658,2.6717,2.672,2.6723,0,0,0,0,0,0,0,0,0,0,0,0,0,2.6168,2.6171,2.6351,2.6353,2.6355,2.6487,2.6489,2.6491,2.6578,2.6579,2.6579,2.658,2.6716,2.6719,2.6723,0,0,0,0,0,0,0,0,0,0,0,0,0,2.627,2.6172,2.6351,2.6414,2.6421,2.6487,2.6489,2.6491,2.6578,2.6579,2.6579,2.658,2.6714,2.6719,2.6724,2.6736,0,0,2.6738,2.674,0,0,0,0,0,0,0,0,2.6264,2.6276,2.6403,2.641,2.6418,2.6517,2.6475,2.6573,2.6578,2.6518,2.658,2.6581,2.6649,2.6659,2.6683,2.6743,2.6749,2.6738,2.6741,2.6743,2.6745,0,0,0,0,0,0,0,2.6257,2.6271,2.6405,2.6405,2.6414,2.6436,2.6451,2.6494,2.6577,2.6524,2.653,2.6545,2.6653,2.6678,2.6687,2.6751,2.6738,2.6742,2.6745,2.6747,2.6831,2.683,0,0,0,0,0,0,2.624,2.6265,2.6401,2.6409,2.6342,2.6439,2.6456,2.6484,2.6577,2.6592,2.6544,2.6549,2.667,2.6681,2.6692,2.6716,2.6743,2.6748,2.675,2.6831,2.6831,2.683,0,0,0,0,0,0,2.6236,2.6251,2.6395,2.6339,2.6359,2.6441,2.6472,2.6486,2.6511,2.6593,2.6608,2.6554,2.6671,2.6685,2.6726,2.6721,2.675,2.6754,2.6832,2.6831,2.683,2.6761,0,0,0,0,0,0,2.623,2.6249,2.6254,2.6338,2.6362,2.6426,2.6472,2.6488,2.652,2.6527,2.6607,2.662,2.6673,2.6718,2.673,2.6728,2.6758,2.6833,2.6832,2.6831,2.6764,2.6758,2.6752,0,0,0,0,0,2.6223,2.6228,2.6254,2.627,2.637,2.6426,2.6439,2.65,2.6519,2.6525,2.6578,2.6618,2.672,2.6721,2.6736,2.6735,2.6834,2.6832,2.6831,2.6766,2.6759,2.6752,0,0,0,0,0,0,2.614,2.624,2.627,2.6303,2.6355,2.6441,2.6451,2.6489,2.6537,2.6541,2.6614,2.6631,2.6665,2.6704,2.6704,2.6754,2.6781,2.6783,2.6727,2.6721,2.6715,2.6706,2.6762,0,0,0,0,0,2.6126,2.6163,2.6249,2.6269,2.6294,2.6368,2.6394,2.6437,2.6494,2.6516,2.6572,2.6625,2.667,2.6697,2.6742,2.677,2.679,2.6777,2.6771,2.6766,2.6766,2.6787,2.6783,2.6826,2.6826,2.6826,0,0,2.6097,2.6156,2.6175,2.6254,2.63,2.6337,2.6386,2.6422,2.6451,2.6521,2.6564,2.6606,2.6671,2.6706,2.6723,2.6739,2.6759,2.6764,2.6759,2.6763,2.6785,2.6781,2.6777,2.6825,2.6825,2.6825,0,0,2.6063,2.611,2.6135,2.618,2.6249,2.6299,2.6304,2.6384,2.6416,2.6459,2.6514,2.6549,2.6623,2.6668,2.67,2.6686,2.6725,2.6698,2.6669,2.6687,2.6684,2.6681,2.6678,2.6676,2.6699,2.6698,2.6698,0,2.6017,2.6076,2.6141,2.6176,2.6211,2.6277,2.6303,2.6343,2.6423,2.6445,2.6462,2.6559,2.6606,2.6654,2.6651,2.6674,2.6684,2.669,2.6679,2.6677,2.6676,2.6674,2.6672,2.6695,2.6695,2.6696,2.6696,0,2.6018,2.6058,2.6069,2.6147,2.6182,2.6211,2.6282,2.631,2.6349,2.6397,2.6442,2.6502,2.6562,2.6576,2.6614,2.663,2.6638,2.6665,2.6695,2.6667,2.6667,2.6666,2.669,2.6691,2.6692,2.6693,0,0,2.5936,2.605,2.6054,2.6091,2.6173,2.6205,2.6239,2.6298,2.6322,2.6375,2.6406,2.6468,2.6496,2.6533,2.6577,2.6593,2.6581,2.662,2.6622,2.6612,2.6604,2.6584,2.6581,2.6607,2.6607,2.6607,2.6599,0,2.5915,2.598,2.604,2.6083,2.6122,2.6187,2.6216,2.627,2.6316,2.6356,2.6406,2.645,2.6482,2.6505,2.6524,2.6578,2.658,2.6579,2.6637,2.6638,2.6621,2.6581,2.6559,2.6549,2.6599,2.6599,2.6599,0,2.59,2.5953,2.5999,2.6081,2.6099,2.6125,2.6186,2.6223,2.6286,2.6318,2.636,2.6408,2.6447,2.6471,2.6527,2.6525,2.6552,2.6583,2.6584,2.6593,2.6618,2.659,2.6547,2.6546,2.6599,2.6599,2.6599,0,2.5838,2.592,2.596,2.5989,2.6084,2.6101,2.6141,2.6205,2.6238,2.6291,2.6314,2.637,2.6401,2.6444,2.6505,2.6517,2.6556,2.6584,2.6585,2.6583,2.6591,2.6589,2.6552,2.6605,2.6605,2.6605,2.6605,0,2.581,2.5837,2.5933,2.5957,2.599,2.606,2.609,2.6135,2.6192,2.6227,2.6286,2.6317,2.6396,2.6437,2.6485,2.6526,2.6538,2.6567,2.6579,2.6562,2.6559,2.6582,2.6585,2.6605,2.6605,2.6605,2.6605,0,2.5746,2.5812,2.5859,2.5946,2.5969,2.5989,2.6064,2.609,2.614,2.6183,2.6198,2.6275,2.6327,2.6393,2.6464,2.6497,2.6533,2.6551,2.6512,2.652,2.6517,2.6517,2.6495,2.6497,2.6546,2.6545,2.6545,0,2.5725,2.5747,2.5837,2.5866,2.5905,2.5949,2.5983,2.6053,2.6087,2.6162,2.618,2.6236,2.6285,2.6365,2.6428,2.6484,2.6505,2.6494,2.6514,2.6497,2.6508,2.6506,2.651,2.6489,2.6488,2.6487,2.6486,0,2.5681,2.5713,2.5761,2.5821,2.5861,2.5911,2.5964,2.5983,2.6064,2.6099,2.6154,2.6192,2.6267,2.6323,2.6387,2.6429,2.6472,2.648,2.6483,2.6467,2.6444,2.6458,2.65,2.648,2.6481,2.6481,2.6481,2.6482,2.564,2.5663,2.5731,2.5783,2.5831,2.588,2.591,2.5964,2.6011,2.6078,2.6116,2.617,2.6235,2.6326,2.6366,2.641,2.6426,2.643,2.6431,2.6432,2.6427,2.6436,2.6421,2.6422,2.6422,2.6422,2.6422,0,2.56,2.5648,2.5695,2.5768,2.581,2.5847,2.5908,2.594,2.5987,2.6044,2.6092,2.6156,2.6211,2.6279,2.6339,2.636,2.6382,2.6374,2.6374,2.6383,2.6409,2.6401,2.6356,2.6356,2.6356,2.6356,2.6356,2.6356,2.5585,2.5629,2.5669,2.5737,2.5784,2.5838,2.587,2.5916,2.5962,2.6031,2.6078,2.6122,2.6184,2.625,2.6302,2.6321,2.6341,2.6328,2.6352,2.6375,2.6381,2.6387,2.638,2.6331,2.6331,2.6324,2.6324,2.6324]}]]